TimeHST,TemperatureF,Dew PointF,Humidity,Sea Level PressureIn,VisibilityMPH,Wind Direction,Wind SpeedMPH,Gust SpeedMPH,PrecipitationIn,Events,Conditions,WindDirDegrees,DateUTC
12:49 AM,80.6,73.4,79,29.98,10.0,NW,10.4,-,N/A,,Overcast,320,2013-07-24 10:49:00
12:53 AM,80.1,73.9,81,29.98,10.0,NW,9.2,-,N/A,,Overcast,320,2013-07-24 10:53:00
1:45 AM,78.8,75.2,89,29.96,10.0,NW,8.1,-,0.01,Rain,Light Rain,310,2013-07-24 11:45:00
1:53 AM,78.1,73.9,87,29.96,10.0,WNW,9.2,-,0.01,Rain,Light Rain,290,2013-07-24 11:53:00
2:53 AM,78.1,73.9,87,29.94,10.0,NW,10.4,-,0.02,Rain,Light Rain,310,2013-07-24 12:53:00
3:04 AM,78.8,73.4,83,29.93,10.0,WNW,8.1,-,0.00,Rain,Light Rain,290,2013-07-24 13:04:00
3:53 AM,78.1,73.0,84,29.94,10.0,WNW,5.8,-,0.00,,Overcast,300,2013-07-24 13:53:00
4:40 AM,77.0,71.6,83,29.94,10.0,ENE,3.5,-,N/A,,Overcast,70,2013-07-24 14:40:00
4:53 AM,78.1,73.0,84,29.94,10.0,ENE,3.5,-,N/A,,Overcast,60,2013-07-24 14:53:00
5:53 AM,77.0,72.0,84,29.95,10.0,SE,4.6,-,N/A,,Overcast,140,2013-07-24 15:53:00
6:53 AM,77.0,72.0,84,29.96,10.0,SSE,4.6,-,N/A,,Mostly Cloudy,150,2013-07-24 16:53:00
7:53 AM,79.0,72.0,79,29.96,10.0,Calm,Calm,-,N/A,,Scattered Clouds,0,2013-07-24 17:53:00
8:18 AM,80.6,71.6,74,29.96,10.0,WNW,4.6,-,N/A,,Mostly Cloudy,290,2013-07-24 18:18:00
8:53 AM,81.0,72.0,74,29.96,10.0,SE,5.8,-,N/A,,Mostly Cloudy,140,2013-07-24 18:53:00
9:02 AM,80.6,71.6,74,29.96,10.0,SSE,5.8,-,N/A,,Partly Cloudy,160,2013-07-24 19:02:00
9:53 AM,82.9,71.1,67,29.96,10.0,SSW,10.4,-,N/A,,Partly Cloudy,210,2013-07-24 19:53:00
10:53 AM,84.0,72.0,67,29.95,10.0,South,13.8,-,N/A,,Clear,190,2013-07-24 20:53:00
11:53 AM,84.0,72.0,67,29.94,10.0,South,12.7,-,N/A,,Mostly Cloudy,190,2013-07-24 21:53:00
12:53 PM,86.0,71.1,61,29.93,10.0,SW,15.0,-,N/A,,Partly Cloudy,220,2013-07-24 22:53:00
1:53 PM,86.0,71.1,61,29.92,10.0,SSW,11.5,-,N/A,,Partly Cloudy,210,2013-07-24 23:53:00
2:53 PM,82.9,71.1,67,29.91,10.0,WSW,10.4,-,N/A,,Overcast,240,2013-07-25 00:53:00
3:53 PM,82.9,70.0,65,29.89,10.0,SW,10.4,-,N/A,,Overcast,230,2013-07-25 01:53:00
4:53 PM,82.9,70.0,65,29.88,10.0,SW,8.1,-,N/A,,Mostly Cloudy,230,2013-07-25 02:53:00
5:53 PM,81.0,70.0,69,29.89,10.0,SW,8.1,-,N/A,,Overcast,230,2013-07-25 03:53:00
6:53 PM,80.1,70.0,71,29.90,10.0,SW,6.9,-,N/A,,Overcast,220,2013-07-25 04:53:00
7:16 PM,80.6,69.8,70,29.91,10.0,WSW,6.9,-,N/A,,Overcast,240,2013-07-25 05:16:00
7:34 PM,80.6,69.8,70,29.91,10.0,SW,6.9,-,N/A,,Overcast,220,2013-07-25 05:34:00
7:53 PM,80.1,69.1,69,29.91,10.0,SSW,3.5,-,N/A,,Overcast,200,2013-07-25 05:53:00
8:53 PM,80.1,69.1,69,29.92,10.0,South,3.5,-,N/A,,Scattered Clouds,190,2013-07-25 06:53:00
9:53 PM,79.0,69.1,72,29.93,10.0,East,3.5,-,N/A,,Clear,90,2013-07-25 07:53:00
10:53 PM,79.0,70.0,74,29.93,10.0,SSW,4.6,-,N/A,,Partly Cloudy,210,2013-07-25 08:53:00
11:53 PM,78.1,70.0,76,29.94,10.0,SE,3.5,-,N/A,,Overcast,130,2013-07-25 09:53:00